Simultaneous Nadir Overpasses (SNOs) Predictions

Prediction of SNOs near equator between AQUA and NPP Satellite Orbit:

Table of predicted SNOs near equator for the next 14.0 days since TLE Epoch: 1/3/2015
Index Date (AQUA) Time (AQUA) AQUA Lat,Lon Date (NPP) Time (NPP) NPP Lat,Lon Distance(km) Time Diff (sec)
1 01/03/2015 09:22:55 27.24,-112.52 01/03/2015 09:22:10 27.33,-112.96 44.64 45
2 01/03/2015 10:11:41 -29.91, 55.79 01/03/2015 10:12:12 -30.05, 55.07 70.88 31
3 01/05/2015 20:58:31 -29.96, 64.59 01/05/2015 20:50:50 -30.12, 65.30 71.05 461
4 01/05/2015 21:48:01 29.94,-127.78 01/05/2015 21:41:37 30.02,-127.37 40.41 384
5 01/05/2015 22:37:24 -29.96, 39.87 01/05/2015 22:32:17 -29.96, 39.97 10.01 307
6 01/05/2015 23:21:17 9.62,-147.75 01/05/2015 23:17:19 9.62,-147.74 0.91 238
7 01/06/2015 00:02:36 19.56, 26.25 01/05/2015 23:59:43 19.56, 26.23 1.81 173
8 01/06/2015 00:50:51 -24.11,-165.05 01/06/2015 00:49:13 -24.18,-165.33 28.82 98
9 01/06/2015 01:38:58 28.66, 3.74 01/06/2015 01:38:36 28.75, 3.20 53.52 22
10 01/06/2015 02:28:07 -29.94, 171.69 01/06/2015 02:29:01 -30.12, 170.87 81.80 54
11 01/08/2015 12:25:33 29.95, 12.83 01/08/2015 12:16:59 30.17, 13.74 90.47 514
12 01/08/2015 13:14:56 -29.96,-179.51 01/08/2015 13:07:39 -30.11,-178.92 59.94 437
13 01/08/2015 14:04:26 29.95, -11.89 01/08/2015 13:58:26 30.00, -11.59 29.20 360
14 01/08/2015 14:53:41 -29.48, 155.89 01/08/2015 14:48:58 -29.48, 155.88 0.83 283
15 01/08/2015 15:34:32 -1.85, -29.39 01/08/2015 15:30:53 -1.86, -29.39 0.63 219
16 01/08/2015 16:18:38 20.94, 142.47 01/08/2015 16:16:08 20.98, 142.36 12.33 150
17 01/08/2015 17:06:52 -25.55, -48.80 01/08/2015 17:05:38 -25.60, -49.18 38.63 74
18 01/08/2015 17:55:02 29.91, 119.96 01/08/2015 17:55:03 30.05, 119.33 62.47 1
19 01/08/2015 18:44:32 -29.93, -72.41 01/08/2015 18:45:50 -30.14, -73.35 92.99 78
20 01/11/2015 04:41:59 29.99, 128.72 01/11/2015 04:33:49 30.16, 129.52 78.95 490
21 01/11/2015 05:31:22 -30.00, -63.62 01/11/2015 05:24:29 -30.10, -63.14 48.44 413
22 01/11/2015 06:20:52 29.99, 104.00 01/11/2015 06:15:17 30.06, 104.17 18.03 335
23 01/11/2015 07:07:13 -19.06, -85.67 01/11/2015 07:02:50 -19.06, -85.68 0.73 263
24 01/11/2015 07:48:02 -12.44, 88.79 01/11/2015 07:44:43 -12.44, 88.78 0.92 199
25 01/11/2015 08:34:39 22.41,-101.29 01/11/2015 08:32:33 22.45,-101.50 22.62 126
26 01/11/2015 09:22:55 -26.89, 67.43 01/11/2015 09:22:04 -27.01, 66.96 48.23 51
27 01/11/2015 10:11:27 29.93,-124.14 01/11/2015 10:11:52 30.11,-124.88 73.89 25
28 01/13/2015 20:08:53 -29.96, 77.01 01/13/2015 19:59:50 -30.15, 78.01 98.15 543
29 01/13/2015 20:58:23 29.95,-115.36 01/13/2015 20:50:38 30.10,-114.69 67.44 465
30 01/13/2015 21:47:46 -29.96, 52.29 01/13/2015 21:41:18 -30.04, 52.66 36.93 388
31 01/13/2015 22:37:15 29.90,-140.07 01/13/2015 22:32:04 29.88,-140.00 6.90 311
32 01/13/2015 23:20:25 -7.44, 32.80 01/13/2015 23:16:22 -7.44, 32.80 0.82 243
33 01/14/2015 00:02:32 -19.35,-153.76 01/13/2015 23:59:35 -19.36,-153.81 5.87 177
34 01/14/2015 00:50:40 23.83, 14.96 01/14/2015 00:48:58 23.92, 14.65 33.06 102
35 01/14/2015 01:38:54 -28.43,-176.28 01/14/2015 01:38:28 -28.53,-176.86 57.50 26
36 01/14/2015 02:27:52 29.90, -8.24 01/14/2015 02:28:42 30.11, -9.10 85.51 50
37 01/16/2015 12:25:17 -29.95,-167.08 01/16/2015 12:16:40 -30.15,-166.22 86.37 517
38 01/16/2015 13:14:47 29.95, 0.54 01/16/2015 13:07:27 30.05, 1.11 55.67 440
39 01/16/2015 14:04:10 -29.96, 168.19 01/16/2015 13:58:07 -29.99, 168.45 25.21 363
40 01/16/2015 14:52:24 25.39, -23.02 01/16/2015 14:47:37 25.39, -23.03 0.32 287
41 01/16/2015 15:33:17 5.36, 151.44 01/16/2015
